STARLINK-1733, 46564

Orbit data source: Space-Track

STARLINK-1733, 46564 is a payload satellite owned by SpaceX/Seattle (US) in LEO that was launched on Tue, 06 Oct 2020 UTC via an FALCON 9 launch vehicle from the Air Force Eastern Test Range (AFETR). Payload-class satellites include a variety of spacecraft equipped with specific instruments for various scientific and technological missions. These include communications satellites like Starlink; space stations such as the ISS; scientific satellites like the Hubble; Earth observation satellites from companies like Planet Labs, Umbra, and HawkEye 360; GPS; miniature CubeSats for education and research; and military/defense satellites.

Loading next visibility...
Identifier
46564, 2020-070AJ
Orbit
LEO
Country
Flag of USUS
Related business
Manufacturer
SpaceX/Seattle
Mission
Operational Commercial Communications
Bus & Motor
STARLINK, Unknown motor
Mass
260 kg wet, ~248 kg dry
Launch date (UTC)
2020-10-06 (5 years ago)
Launch vehicle
FALCON 9
Launch site
Air Force Eastern Test Range (AFETR)
Object type
Payload
Rocket body
Debris
Shape & HBR
Box + 1 Pan, 10.1 m
Radar Cross Section
13.562 m², Large (>1 m²)

Expand to show TLE details & history
Last TLE update: 9 hours ago

TLE from 9 hours ago
0 STARLINK-1733
1 46564U 20070AJ  25291.26996960  .00035143  00000-0  10139-2 0  9992
2 46564  53.0555  73.0594 0001346  48.5028 311.6089 15.35391733278341
Epoch: 2025-10-18T06:28Z
TLE epoch observation values (Epoch: 2025-10-18T06:28:45.373Z)
Latitude
-0.00002°
Longitude
-51.13307°
Altitude
460.037 km
Speed
7.638 km/s
True Right ascension
04h 52m 14s
True Declination
0° 00' 00"
Sunlit
Object was in full shadow at epoch
Visualization orbit readout
Latitude
Unknown
Longitude
Unknown
Altitude
Unknown
Speed
Unknown
Apparent Right ascension
Unknown
Apparent Declination
Unknown
Sunlit
N/A
Visualization observer readout
Local Sidereal Time
10:35:20
Azimuth
Unknown
Elevation
Unknown
Doppler factor
Unknown
Orbital elements
Apogee altitude
460.952 km
Perigee altitude
459.111 km
Semi-major axis
6,838.168 km
Eccentricity
0.00013
Inclination
53.0555°
RAAN
73.0594°
Arg. of periapsis
48.5028°
True anomaly
311.59737°
Mean anomaly
311.6089°
Eccentric anomaly
311.60313°
Mean motion
3.83825 °/min
Orbital period
93.79 mins
BSTAR
0.0010139
Loading maneuver chart data...
Computing Atmospheric mass density...

Documentation

Showing up to 5 results
|